Tracking 19247 objects as of 22-Sep-2018
HD Live streaming from Space Station
objects crossing your sky now

FENGYUN 1C DEB

Track FENGYUN 1C DEB now!
10-day predictions


NORAD ID: 31423
Int'l Code: 1999-025BTK
Perigee: 802.0 km
Apogee: 854.2 km
Inclination: 98.6 °
Period: 101.3 minutes
Semi major axis: 7199 km
RCS: 0.0023 m2 (small)
Launch date: May 10, 1999
Source: People's Republic of China (PRC)
Launch site: Taiyaun Space Center, China (TSC)

Note: This is SATELLITE DEBRIS
aabbcc
Your satellite tracking list
Your tracking list is empty




NASA's NSSDC Master Catalog

Two Line Element Set (TLE):
1 31423U 99025BTK 18263.54703782 +.00000027 +00000-0 +31822-4 0  9993
2 31423 098.5880 294.9734 0036262 304.5635 055.2123 14.21294253594522
Source of the keplerian elements: AFSPC